Weather in Novoselovka

Ukraine / Odesa District     47°38′56″N   29°36′59″E
temp.,
°C
wind,
m/s
gust,
m/s
humid.,
%
clouds,
%
prec.,
mm/h
press.,
hPa
HPBL,
m
20 april, tue
tue2000:00+8ne357783 0.0 1013131
03:00+6ne378499 0.0 1011161
06:00+5nne368399 0.0 1011138
09:00+9nne5767100 0.0 1010561
12:00+12n6650100 0.0 10091846
15:00+12nnw5654100 0.1 10091457
18:00+12nw465543 0.2 1009865
21:00+8w346814 0.2 101052
21 april, wed
wed2100:00+7w34765 0.0 101161
03:00+7w4887100 0.0 1011191
06:00+5w2391100 0.0 101242
09:00+10w346992 0.0 1013377
12:00+13w455594 0.8 10131443
15:00+15wsw5648100 2.2 10131885
18:00+13wsw476197 0.9 1014320
21:00+11sw336822 1.1 101538
22 april, thu
thu2200:00+9sw22705 0.0 101614
03:00+8ssw34730 0.0 101644
06:00+7ssw33795 0.0 101629
09:00+12sw236412 0.0 1017298
12:00+16ssw45475 0.0 10171516
15:00+18sw554057 0.0 10172404
18:00+16ssw365197 0.0 1016202
21:00+14s365597 0.0 101797
23 april, fri
fri2300:00+12s496756 0.0 1017191
03:00+9s410805 0.4 1016189
06:00+8s49860 0.0 1016155
09:00+13ssw696717 0.0 1016392
12:00+17ssw810519 0.1 10151712
15:00+14w5770100 2.3 1014785
18:00+5nnw81391100 8.3 1019751
21:00+6n3785100 10.7 1020583
24 april, sat
sat2400:00+5w23885 0.0 102192
03:00+4w49922 0.0 1021266
06:00+3wnw512855 0.0 1021396
09:00+5nw712580 0.0 10231215
12:00+8nw810380 0.0 10231700
15:00+10nw683954 0.0 10221904
18:00+10wnw464065 0.0 10222004
21:00+6ssw45555 0.0 102268